• Em Portugal
  • Lista de países
  • Para 7 dias
  • Temperatura da água
  • Mapas de satélite
  • Mapa do tempo
  • Widgets de tempo
  • user-avatar
    Iniciar Sessão

    Previsão horária em Zahla

    Hoje, 23 Fevereiro, Sexta-feira

    Tempo Temperatura Precipitação Vento Pressão Humidade
    00:00 +9°C° 0 mm 1 m/s 670 mmHg 81%
    01:00 +8°C° 0 mm 1 m/s 670 mmHg 82%
    02:00 +8°C° 0 mm 1 m/s 670 mmHg 83%
    03:00 +8°C° 0 mm 1 m/s 669 mmHg 83%
    04:00 +8°C° 0 mm 1 m/s 669 mmHg 83%
    05:00 +7°C° 0 mm 1 m/s 669 mmHg 84%
    06:00 +8°C° 0 mm 1 m/s 669 mmHg 79%
    07:00 +9°C° 0 mm 1 m/s 670 mmHg 75%
    08:00 +9°C° 0 mm 2 m/s 669 mmHg 67%
    09:00 +10°C° 0 mm 2 m/s 669 mmHg 61%
    10:00 +12°C° 0 mm 2 m/s 670 mmHg 55%
    11:00 +13°C° 0 mm 2 m/s 670 mmHg 50%
    12:00 +13°C° 0,1 mm 2 m/s 670 mmHg 50%
    13:00 +13°C° 0,1 mm 2 m/s 669 mmHg 50%
    14:00 +14°C° 0 mm 2 m/s 669 mmHg 45%
    15:00 +13°C° 0,1 mm 1 m/s 669 mmHg 47%
    16:00 +13°C° 0,1 mm 1 m/s 669 mmHg 50%
    17:00 +13°C° 0,1 mm 1 m/s 669 mmHg 53%
    18:00 +12°C° 0 mm 1 m/s 669 mmHg 57%
    19:00 +11°C° 0 mm 1 m/s 669 mmHg 61%
    20:00 +9°C° 0 mm 0 m/s 669 mmHg 65%
    21:00 +9°C° 0 mm 0 m/s 669 mmHg 67%
    22:00 +8°C° 0 mm 0 m/s 669 mmHg 68%
    23:00 +8°C° 0 mm 0 m/s 669 mmHg 70%

    Amanhã, 24 Fevereiro, Sábado

    Tempo Temperatura Precipitação Vento Pressão Humidade
    00:00 +7°C° 0 mm 0 m/s 669 mmHg 71%
    01:00 +8°C° 0 mm 1 m/s 668 mmHg 72%
    02:00 +8°C° 0 mm 1 m/s 668 mmHg 73%
    03:00 +7°C° 0 mm 1 m/s 668 mmHg 74%
    04:00 +7°C° 0 mm 1 m/s 668 mmHg 75%
    05:00 +7°C° 0 mm 1 m/s 668 mmHg 75%
    06:00 +8°C° 0 mm 1 m/s 669 mmHg 70%
    07:00 +9°C° 0 mm 1 m/s 669 mmHg 64%
    08:00 +10°C° 0 mm 1 m/s 670 mmHg 59%
    09:00 +10°C° 0 mm 2 m/s 670 mmHg 53%
    10:00 +10°C° 0 mm 2 m/s 670 mmHg 48%
    11:00 +12°C° 0 mm 2 m/s 671 mmHg 43%
    12:00 +12°C° 0 mm 3 m/s 671 mmHg 43%
    13:00 +12°C° 0 mm 3 m/s 670 mmHg 43%
    14:00 +12°C° 0 mm 3 m/s 670 mmHg 43%
    15:00 +12°C° 0 mm 3 m/s 670 mmHg 48%
    16:00 +11°C° 0 mm 3 m/s 670 mmHg 52%
    17:00 +10°C° 0 mm 3 m/s 670 mmHg 56%
    18:00 +10°C° 0 mm 2 m/s 670 mmHg 61%
    19:00 +9°C° 0 mm 2 m/s 670 mmHg 66%
    20:00 +8°C° 0 mm 2 m/s 670 mmHg 71%
    21:00 +8°C° 0 mm 2 m/s 670 mmHg 71%
    22:00 +7°C° 0 mm 2 m/s 670 mmHg 70%
    23:00 +7°C° 0 mm 2 m/s 670 mmHg 70%

    Depois de amanhã, 25 Fevereiro, Domingo

    Tempo Temperatura Precipitação Vento Pressão Humidade
    00:00 +7°C° 0 mm 2 m/s 670 mmHg 67%
    01:00 +6°C° 0 mm 2 m/s 670 mmHg 65%
    02:00 +6°C° 0 mm 2 m/s 670 mmHg 62%
    03:00 +6°C° 0 mm 2 m/s 670 mmHg 58%
    04:00 +6°C° 0 mm 2 m/s 669 mmHg 54%
    05:00 +5°C° 0 mm 3 m/s 669 mmHg 50%
    06:00 +7°C° 0 mm 3 m/s 670 mmHg 47%
    07:00 +8°C° 0 mm 3 m/s 670 mmHg 45%
    08:00 +9°C° 0 mm 3 m/s 670 mmHg 42%
    09:00 +10°C° 0 mm 5 m/s 670 mmHg 42%
    10:00 +11°C° 0 mm 6 m/s 670 mmHg 42%
    11:00 +12°C° 0 mm 7 m/s 670 mmHg 43%
    12:00 +12°C° 0 mm 7 m/s 670 mmHg 45%
    13:00 +12°C° 0 mm 7 m/s 669 mmHg 48%
    14:00 +12°C° 0 mm 8 m/s 669 mmHg 50%
    15:00 +11°C° 0,1 mm 7 m/s 669 mmHg 59%
    16:00 +10°C° 0,1 mm 6 m/s 669 mmHg 67%
    17:00 +9°C° 0,1 mm 5 m/s 669 mmHg 76%
    18:00 +8°C° 0,1 mm 5 m/s 669 mmHg 76%
    19:00 +8°C° 0,1 mm 4 m/s 669 mmHg 77%
    20:00 +7°C° 0,1 mm 4 m/s 670 mmHg 78%
    21:00 +7°C° 0 mm 4 m/s 670 mmHg 78%
    22:00 +7°C° 0 mm 4 m/s 669 mmHg 79%
    23:00 +6°C° 0 mm 4 m/s 669 mmHg 80%

    26 Fevereiro, Segunda-feira

    Tempo Temperatura Precipitação Vento Pressão Humidade
    00:00 +7°C° 0,1 mm 3 m/s 669 mmHg 80%
    01:00 +7°C° 0,1 mm 3 m/s 669 mmHg 80%
    02:00 +7°C° 0,1 mm 3 m/s 669 mmHg 80%
    03:00 +7°C° 0,3 mm 3 m/s 669 mmHg 80%
    04:00 +7°C° 0,3 mm 3 m/s 669 mmHg 81%
    05:00 +7°C° 0,3 mm 3 m/s 669 mmHg 81%
    06:00 +7°C° 0,1 mm 3 m/s 669 mmHg 77%
    07:00 +7°C° 0,1 mm 3 m/s 669 mmHg 73%
    08:00 +8°C° 0,1 mm 3 m/s 670 mmHg 68%
    09:00 +8°C° 0,2 mm 3 m/s 669 mmHg 67%
    10:00 +9°C° 0,2 mm 3 m/s 669 mmHg 66%
    11:00 +9°C° 0,2 mm 3 m/s 669 mmHg 65%
    12:00 +10°C° 0,1 mm 3 m/s 669 mmHg 66%
    13:00 +10°C° 0,1 mm 3 m/s 669 mmHg 66%
    14:00 +10°C° 0,1 mm 3 m/s 668 mmHg 66%
    15:00 +10°C° 0,1 mm 3 m/s 668 mmHg 68%
    16:00 +10°C° 0,1 mm 3 m/s 668 mmHg 70%
    17:00 +10°C° 0,1 mm 3 m/s 669 mmHg 72%
    18:00 +9°C° 0 mm 2 m/s 669 mmHg 76%
    19:00 +8°C° 0 mm 2 m/s 669 mmHg 80%
    20:00 +8°C° 0 mm 2 m/s 669 mmHg 83%
    21:00 +7°C° 0 mm 2 m/s 669 mmHg 82%
    22:00 +7°C° 0 mm 2 m/s 669 mmHg 81%
    23:00 +7°C° 0 mm 2 m/s 669 mmHg 80%

    27 Fevereiro, Terça-feira

    Tempo Temperatura Precipitação Vento Pressão Humidade
    00:00 +7°C° 0 mm 2 m/s 668 mmHg 78%
    01:00 +7°C° 0 mm 2 m/s 668 mmHg 76%
    02:00 +7°C° 0 mm 2 m/s 668 mmHg 73%
    03:00 +7°C° 0,6 mm 3 m/s 668 mmHg 76%
    04:00 +7°C° 0,6 mm 3 m/s 668 mmHg 79%
    05:00 +7°C° 0,6 mm 3 m/s 668 mmHg 82%
    06:00 +7°C° 0,4 mm 3 m/s 669 mmHg 81%
    07:00 +8°C° 0,4 mm 3 m/s 669 mmHg 80%
    08:00 +8°C° 0,4 mm 3 m/s 670 mmHg 78%
    09:00 +8°C° 0,4 mm 4 m/s 670 mmHg 75%
    10:00 +8°C° 0,4 mm 4 m/s 670 mmHg 72%
    11:00 +9°C° 0,4 mm 5 m/s 670 mmHg 69%
    12:00 +9°C° 0 mm 5 m/s 670 mmHg 64%
    13:00 +10°C° 0 mm 5 m/s 670 mmHg 60%
    14:00 +10°C° 0 mm 5 m/s 670 mmHg 55%
    15:00 +10°C° 0 mm 5 m/s 670 mmHg 58%
    16:00 +10°C° 0 mm 4 m/s 670 mmHg 61%
    17:00 +8°C° 0 mm 4 m/s 670 mmHg 65%
    18:00 +8°C° 0 mm 3 m/s 671 mmHg 69%
    19:00 +8°C° 0 mm 3 m/s 671 mmHg 74%
    20:00 +7°C° 0 mm 3 m/s 671 mmHg 79%
    21:00 +7°C° 0 mm 2 m/s 671 mmHg 80%
    22:00 +7°C° 0 mm 2 m/s 671 mmHg 80%
    23:00 +6°C° 0 mm 2 m/s 672 mmHg 81%

    28 Fevereiro, Quarta-feira

    Tempo Temperatura Precipitação Vento Pressão Humidade
    00:00 +6°C° 0 mm 2 m/s 671 mmHg 81%
    01:00 +6°C° 0 mm 2 m/s 671 mmHg 81%
    02:00 +6°C° 0 mm 2 m/s 671 mmHg 81%
    03:00 +6°C° 0 mm 1 m/s 671 mmHg 81%
    04:00 +6°C° 0 mm 1 m/s 672 mmHg 82%
    05:00 +6°C° 0 mm 1 m/s 672 mmHg 83%
    06:00 +7°C° 0 mm 1 m/s 672 mmHg 78%
    07:00 +8°C° 0 mm 1 m/s 673 mmHg 72%
    08:00 +9°C° 0 mm 1 m/s 673 mmHg 67%
    09:00 +10°C° 0 mm 1 m/s 673 mmHg 63%
    10:00 +10°C° 0 mm 2 m/s 674 mmHg 59%
    11:00 +12°C° 0 mm 2 m/s 674 mmHg 55%
    12:00 +13°C° 0 mm 2 m/s 673 mmHg 54%
    13:00 +13°C° 0 mm 2 m/s 673 mmHg 54%
    14:00 +13°C° 0 mm 2 m/s 672 mmHg 53%
    15:00 +13°C° 0 mm 2 m/s 672 mmHg 56%
    16:00 +13°C° 0 mm 2 m/s 672 mmHg 58%
    17:00 +12°C° 0 mm 2 m/s 672 mmHg 61%
    18:00 +12°C° 0 mm 2 m/s 672 mmHg 63%
    19:00 +10°C° 0 mm 2 m/s 672 mmHg 66%
    20:00 +9°C° 0 mm 2 m/s 673 mmHg 69%
    21:00 +9°C° 0 mm 2 m/s 673 mmHg 68%
    22:00 +9°C° 0 mm 2 m/s 673 mmHg 68%
    23:00 +8°C° 0 mm 2 m/s 673 mmHg 67%
    Mostrar mais